{"data":{"norad_id":49428,"epoch":"2026-05-24T16:43:09.248448Z","epoch_age_seconds":108089,"freshness":"FRESH","line1":"1 49428U 21104W   26144.69663482 -.00000156  00000+0  82865-5 0  9992","line2":"2 49428  53.2151 247.8246 0001699  86.2864 273.8322 15.08840099250118","mean_motion":15.08840099,"eccentricity":0.0001699,"inclination_deg":53.2151,"raan_deg":247.8246,"arg_perigee_deg":86.2864,"mean_anomaly_deg":273.8322,"bstar":8.2865e-6,"rev_number":25011,"period_min":95.437548415791,"perigee_km":538.56773853405,"apogee_km":540.9184341874,"semimajor_km":6917.8800863607,"source":"CELESTRAK","updated_at":"2026-05-25T13:38:16.798802Z"}}